Location: Fosso Corella
(43.9167°N, 11.5667°E)
Time: 19:13:20
(UTC+00:00)

ADEOS II - Pass Details

Date: 07 June 2020
Orbit: 799 x 801 km, 98.5° (Epoch: 02 July)

Event Time Altitude Azimuth Distance (km) Brightness Sun altitude
Rises 01:03:32 0° 20° (NNE) 3,318 7.0 -18.6°
Reaches altitude 10° 01:06:02 10° 28° (NNE) 2,383 5.8 -18.4°
Maximum altitude 01:10:58 40° 98° (E) 1,163 3.1 -18.0°
Enters shadow 01:14:40 17° 161° (SSE) 1,939 3.7 -17.7°
